Cliffside Park, New Jersey, United States (07010)
Lat: 40.82N, Lon: 73.99W
Wx Zone: NJZ104
Local Info
Past Weather Observations for Today

NOTE: This archive is for the closest National Weather Service station to Cliffside Park. Information may differ from the station used for current weather conditions.

Click here for Long-term Archive

Time Weather Temperature Dewpoint Humidity Pressure Winds Precip Visibility
17:51
Partly Cloudy
Fog And Mist
79°F / 26°C 73°F / 23°C 84% 29.83 in
(1010 mb)
SW 5.8 mph
(SW 9 kph)
- 4SM
16:51
Partly Cloudy
Fog And Mist
79°F / 26°C 73°F / 23°C 84% 29.83 in
(1010 mb)
Variable 3.5 mph
(Variable 6 kph)
0.08 in
(2.03 mm)
4SM
16:17
Mostly Cloudy
Fog And Mist
77°F / 25°C 73°F / 23°C 89% 29.83 in
(1010 mb)
Calm 0.08 in
(2.03 mm)
4SM
16:09
Overcast
Light Rain
77°F / 25°C 73°F / 23°C 89% 29.83 in
(1010 mb)
Variable 4.6 mph
(Variable 7 kph)
0.08 in
(2.03 mm)
2SM
15:59
Overcast
Heavy Rain
75°F / 24°C 73°F / 23°C 94% 29.83 in
(1010 mb)
Calm 0.05 in
(1.27 mm)
3/4SM
15:51
Overcast
Light Rain
75°F / 24°C 72°F / 22°C 89% 29.83 in
(1010 mb)
Variable 5.8 mph
(Variable 9 kph)
0.36 in
(9.14 mm)
2SM
15:27
Overcast
Rain
81°F / 27°C 75°F / 24°C 84% 29.83 in
(1010 mb)
Calm 0.08 in
(2.03 mm)
1/2SM
15:04
Overcast
Fog And Mist
81°F / 27°C 75°F / 24°C 84% 29.83 in
(1010 mb)
Calm 0.04 in
(1.02 mm)
1 1/2SM
14:51
Mostly Cloudy
Heavy Rain
81°F / 27°C 75°F / 24°C 84% 29.83 in
(1010 mb)
Calm 0.02 in
(0.51 mm)
1/2SM
14:49
Mostly Cloudy
Heavy Rain
81°F / 27°C 75°F / 24°C 84% 29.83 in
(1010 mb)
Calm 0.01 in
(0.25 mm)
1/2SM
14:44
Mostly Cloudy
Light Rain
81°F / 27°C 75°F / 24°C 84% 29.83 in
(1010 mb)
Variable 3.5 mph
(Variable 6 kph)
0.01 in
(0.25 mm)
1 3/4SM
13:56
Mostly Cloudy
Fog And Mist
77°F / 25°C 73°F / 23°C 89% 29.86 in
(1011 mb)
Calm 0.00 in
(0.00 mm)
4SM
13:54
Mostly Cloudy
Light Rain
77°F / 25°C 73°F / 23°C 89% 29.86 in
(1011 mb)
Calm 0.00 in
(0.00 mm)
2 1/2SM
13:51
Mostly Cloudy
Light Rain
75°F / 24°C 73°F / 23°C 94% 29.86 in
(1011 mb)
Calm 1.28 in
(32.51 mm)
3/4SM
13:41
Overcast
Heavy Rain
75°F / 24°C 73°F / 23°C 94% 29.89 in
(1012 mb)
Variable 4.6 mph
(Variable 7 kph)
1.13 in
(28.70 mm)
1/4SM
13:28
Overcast
Heavy Rain
79°F / 26°C 75°F / 24°C 89% 29.89 in
(1012 mb)
SSW 8.1 mph
(SSW 13 kph)
0.35 in
(8.89 mm)
1/4SM
13:18
Overcast
Heavy Rain
81°F / 27°C 75°F / 24°C 84% 29.89 in
(1012 mb)
Calm 0.14 in
(3.56 mm)
1/4SM
13:09
Overcast
Rain
81°F / 27°C 77°F / 25°C 89% 29.86 in
(1011 mb)
Variable 5.8 mph
(Variable 9 kph)
0.02 in
(0.51 mm)
3/4SM
13:03
Overcast
Fog And Mist
81°F / 27°C 77°F / 25°C 89% 29.86 in
(1011 mb)
Calm 0.00 in
(0.00 mm)
1 1/4SM
12:51
Overcast
Light Rain
81°F / 27°C 77°F / 25°C 89% 29.86 in
(1011 mb)
Calm 0.18 in
(4.57 mm)
1/2SM
12:30
Overcast
Light Rain
81°F / 27°C 75°F / 24°C 84% 29.89 in
(1012 mb)
Calm 0.06 in
(1.52 mm)
1 3/4SM
12:06
Overcast
Hazy
81°F / 27°C 75°F / 24°C 84% 29.89 in
(1012 mb)
Calm 0.03 in
(0.76 mm)
4SM
11:59
Overcast
Light Rain
81°F / 27°C 75°F / 24°C 84% 29.89 in
(1012 mb)
Variable 3.5 mph
(Variable 6 kph)
0.03 in
(0.76 mm)
2 1/2SM
11:51
Overcast
Heavy Rain
82°F / 28°C 73°F / 23°C 74% 29.89 in
(1012 mb)
Variable 5.8 mph
(Variable 9 kph)
0.02 in
(0.51 mm)
1SM
11:49
Overcast
Rain
82°F / 28°C 73°F / 23°C 74% 29.89 in
(1012 mb)
Variable 4.6 mph
(Variable 7 kph)
0.01 in
(0.25 mm)
1 1/2SM
11:20
Overcast
86°F / 30°C 73°F / 23°C 66% 29.92 in
(1013 mb)
Variable 3.5 mph
(Variable 6 kph)
- 8SM
10:51
Overcast
82°F / 28°C 72°F / 22°C 70% 29.92 in
(1013 mb)
SW 5.8 mph
(SW 9 kph)
- 9SM
09:51
Overcast
81°F / 27°C 72°F / 22°C 74% 29.92 in
(1013 mb)
SW 8.1 mph
(SW 13 kph)
- 7SM
08:51
Overcast
81°F / 27°C 72°F / 22°C 74% 29.92 in
(1013 mb)
Calm 0.01 in
(0.25 mm)
9SM
08:04
Overcast
79°F / 26°C 72°F / 22°C 79% 29.95 in
(1014 mb)
Calm 0.01 in
(0.25 mm)
9SM
07:51
Overcast
81°F / 27°C 72°F / 22°C 74% 29.95 in
(1014 mb)
Variable 3.5 mph
(Variable 6 kph)
- 7SM
06:51
Mostly Cloudy
81°F / 27°C 72°F / 22°C 74% 29.95 in
(1014 mb)
Calm - 9SM
06:01
Mostly Cloudy
81°F / 27°C 72°F / 22°C 74% 29.95 in
(1014 mb)
Variable 3.5 mph
(Variable 6 kph)
- 8SM
05:51
Overcast
81°F / 27°C 72°F / 22°C 74% 29.95 in
(1014 mb)
SSW 8.1 mph
(SSW 13 kph)
- 8SM
05:34
Overcast
79°F / 26°C 72°F / 22°C 79% 29.95 in
(1014 mb)
SSW 5.8 mph
(SSW 9 kph)
- 8SM
04:51
Partly Cloudy
79°F / 26°C 72°F / 22°C 79% 29.95 in
(1014 mb)
Variable 3.5 mph
(Variable 6 kph)
- 9SM
03:51
Partly Cloudy
81°F / 27°C 70°F / 21°C 70% 29.95 in
(1014 mb)
SSW 8.1 mph
(SSW 13 kph)
- 9SM
02:51
Clear
81°F / 27°C 72°F / 22°C 74% 29.95 in
(1014 mb)
Calm - 10SM
01:51
Clear
81°F / 27°C 70°F / 21°C 70% 29.95 in
(1014 mb)
SW 4.6 mph
(SW 7 kph)
- 10SM
00:51
Clear
82°F / 28°C 70°F / 21°C 66% 29.98 in
(1015 mb)
Variable 6.9 mph
(Variable 11 kph)
- 10SM
Time Weather Temperature Dewpoint Humidity Pressure Winds Precip Visibility


Weather for websites

WeatherForYou.com, LLC is not responsible for any damages or problems caused by this service. Current weather conditions are obtained from the closest station including government and personal stations which may have varying degrees of accuracy. Weather forecasts are derived from the NOAA NDFD. Like all things, this site belongs to Jesus Christ... He just trusts us to maintain it. If you have any questions or comments email webmaster@weatherforyou.com

Copyright © 2015, WeatherForYou.com LLC. All rights reserved.